Погода в Медведеве

Россия / Архангельская область     60°59′51″N   38°33′08″E
темп.,
°C
ветер,
м/с
пор.,
м/с
влажн.,
%
обл.,
%
осадки,
мм/ч
давл.,
гПа
погр.,
м
27 января, чт
чт2700:00−18юз24100100 0.0 101364
03:00−14ююз2697100 0.0 1012132
06:00−12ю2895100 0.0 1010184
09:00−12ю31095100 0.0 1009276
12:00−9ю41190100 0.0 1008389
15:00−8ю41287100 0.0 1007497
18:00−9ю41290100 0.0 1006486
21:00−9ю41390100 0.0 1004529
28 января, пт
пт2800:00−9ююв41293100 0.2 1004575
03:00−9ююв41193100 0.6 1003579
06:00−10ююв41093100 0.3 1002483
09:00−10ююв41094100 0.6 1003450
12:00−9ююв41093100 0.5 1003435
15:00−9ююв3994100 0.9 1003416
18:00−9ююв3995100 0.4 1004429
21:00−9ююв3994100 0.8 1004408
29 января, сб
сб2900:00−9ююв3895100 0.3 1004372
03:00−10ююв279586 0.6 1004319
06:00−10ююв269698 0.2 1003254
09:00−11ююв259682 0.5 1004186
12:00−9ююз2492100 0.2 1003283
15:00−9ю139691 0.3 100389
18:00−13ююз129988 0.1 100335
21:00−14юз119977 0.1 10029
30 января, вс
вс3000:00−19ююв21100100 0.0 100114
03:00−17ююв25100100 0.1 99974
06:00−16ююв2899100 0.1 996149
09:00−12юв31096100 0.2 992314
12:00−10вюв41294100 0.1 991411
15:00−8вюв41294100 0.2 990529
18:00−9в41294100 0.1 990485
21:00−10в41195100 0.2 991414
31 января, пн
пн3100:00−11в31096100 0.1 992346
03:00−11всв31096100 0.1 992294
06:00−11всв3996100 0.1 993308
09:00−10св3995100 0.8 994334
12:00−9св3894100 0.6 995340
15:00−8св3894100 0.8 996429
18:00−9св399597 0.2 996329
21:00−9ссв3895100 0.3 997321